Home > Weather > Worcester > Past weeks

Flag for USA Weather for the Past 2 Weeks in Worcester, Massachusetts, USA

Now
57 °F

Sunny.


Feels Like: 57 °F
Forecast: 41 / 62 °F
Wind: 3 mph from North

Location: Worcester Regional Airport

Current Time: Apr 30, 2016 at 1:38:53 PM

Latest Report: Apr 30, 2016 at 12:54 PM


Visibility: 10 mi

Pressure: 30.17 "Hg

Humidity: 46%

Dew Point: 36 °F

Location of WorcesterLocation

Historic Weather in Worcester — Graph

°F

Worcester Temperature Yesterday

Maximum temperature yesterday: 56 °F (at 4:54 PM)
Minimum temperature yesterday: 38 °F (at 5:54 AM)
Average temperature yesterday: 46 °F

High & Low Weather Summary for the Past Weeks

 TemperatureHumidityPressure
High136 °F (Apr 22, 6:54 AM)100% (Apr 27, 4:00 AM)30.49 "Hg (Apr 27, 4:00 AM)
Low32 °F (Apr 27, 4:00 AM)13% (Apr 24, 4:54 PM)29.73 "Hg (Apr 26, 4:04 PM)
Average50 °F42%30.09 "Hg
* Reported Apr 15 11:54 AM — Apr 30 11:54 AM, Worcester, Weather by CustomWeather, © 2016

Note: Actual official high and low records may vary slightly from our data, if they occured in-between our weather recording intervals... More about our weather records

Advertising

Worcester Weather History for the Previous 24 Hours

Scroll right to see more
 ConditionsComfort  
Time TempWeatherWind HumidityBarometerVisibility
11:54 AM
Sat, Apr 30
55 °FSunny.3 mph51%30.18 "Hg10 mi
10:54 AM54 °FSunny.6 mph51%30.20 "Hg10 mi
9:54 AM51 °FPartly sunny.5 mph54%30.21 "Hg10 mi
8:54 AM46 °FOvercast.7 mph66%30.23 "Hg10 mi
7:54 AM43 °FOvercast.10 mph62%30.23 "Hg10 mi
6:54 AM41 °FSunny.6 mph70%30.20 "Hg10 mi
5:54 AM38 °FClear.7 mph73%30.16 "Hg10 mi
4:54 AM39 °FClear.7 mph70%30.13 "Hg10 mi
3:54 AM40 °FPassing clouds.8 mph68%30.15 "Hg10 mi
2:54 AM42 °FOvercast.6 mph62%30.16 "Hg10 mi
1:54 AM42 °FOvercast.7 mph65%30.16 "Hg10 mi
12:54 AM43 °FPassing clouds.7 mph60%30.16 "Hg10 mi
11:54 PM
Fri, Apr 29
44 °FOvercast.9 mph60%30.15 "Hg10 mi
10:54 PM45 °FOvercast.9 mph60%30.15 "Hg10 mi
9:54 PM45 °FOvercast.12 mph58%30.14 "Hg10 mi
8:54 PM47 °FOvercast.12 mph52%30.12 "Hg10 mi
7:54 PM50 °FOvercast.13 mph48%30.10 "Hg10 mi
6:54 PM52 °FSunny.6 mph49%30.09 "Hg10 mi
5:54 PM55 °FPartly sunny.7 mph37%30.07 "Hg10 mi
4:54 PM56 °FPartly sunny.9 mph37%30.08 "Hg10 mi
3:54 PM54 °FPartly sunny.3 mph38%30.08 "Hg10 mi
2:54 PM55 °FPassing clouds.3 mph37%30.08 "Hg10 mi
1:54 PM52 °FSunny.8 mph41%30.11 "Hg10 mi
Weather by CustomWeather, © 2016

See weather overviewHow to use our weather pages